Time,TemperatureF,DewpointF,PressureIn,WindDirection,WindDirectionDegrees,WindSpeedMPH,WindSpeedGustMPH,Humidity,HourlyPrecipIn,Conditions,Clouds,dailyrainin,SolarRadiationWatts/m^2,SoftwareType,DateUTC
2013-11-28 00:00:00,29.2,27.4,30.38,NE,50,0.0,4.0,93,0.00,,,0.00,0,Wunderground v.1.15,2013-11-28 05:00:00,
2013-11-28 00:05:00,29.2,27.4,30.38,NE,50,0.0,4.0,93,0.00,,,0.00,0,Wunderground v.1.15,2013-11-28 05:05:00,
2013-11-28 00:10:00,29.1,27.3,30.38,NE,50,0.0,4.0,93,0.00,,,0.00,0,Wunderground v.1.15,2013-11-28 05:10:00,
2013-11-28 00:20:00,29.1,27.3,30.38,NE,50,0.0,4.0,93,0.00,,,0.00,0,Wunderground v.1.15,2013-11-28 05:20:00,
2013-11-28 00:25:00,29.3,27.5,30.39,NE,50,0.0,4.0,93,0.00,,,0.00,0,Wunderground v.1.15,2013-11-28 05:25:00,
2013-11-28 00:30:00,29.3,27.5,30.38,NE,50,0.0,4.0,93,0.00,,,0.00,0,Wunderground v.1.15,2013-11-28 05:30:00,
2013-11-28 00:40:00,29.1,27.1,30.39,NE,50,0.0,4.0,92,0.00,,,0.00,0,Wunderground v.1.15,2013-11-28 05:40:00,
2013-11-28 00:45:00,29.2,27.4,30.39,NE,50,0.0,4.0,93,0.00,,,0.00,0,Wunderground v.1.15,2013-11-28 05:45:00,
2013-11-28 00:55:00,29.2,27.2,30.39,NE,50,0.0,4.0,92,0.00,,,0.00,0,Wunderground v.1.15,2013-11-28 05:55:00,
2013-11-28 01:00:00,29.2,27.2,30.39,NE,50,0.0,0.0,92,0.00,,,0.00,0,Wunderground v.1.15,2013-11-28 06:00:00,
2013-11-28 01:10:00,29.0,27.2,30.39,NE,50,0.0,0.0,93,0.00,,,0.00,0,Wunderground v.1.15,2013-11-28 06:10:00,
2013-11-28 01:15:00,29.0,27.2,30.39,NE,50,0.0,0.0,93,0.00,,,0.00,0,Wunderground v.1.15,2013-11-28 06:15:00,
2013-11-28 01:25:00,28.8,27.0,30.40,NE,50,0.0,0.0,93,0.00,,,0.00,0,Wunderground v.1.15,2013-11-28 06:25:00,
2013-11-28 01:30:00,28.5,26.7,30.40,NE,50,0.0,0.0,93,0.00,,,0.00,0,Wunderground v.1.15,2013-11-28 06:30:00,
2013-11-28 01:40:00,28.4,26.9,30.40,NE,50,0.0,0.0,94,0.00,,,0.00,0,Wunderground v.1.15,2013-11-28 06:40:00,
2013-11-28 01:50:00,28.3,26.5,30.40,NE,50,0.0,0.0,93,0.00,,,0.00,0,Wunderground v.1.15,2013-11-28 06:50:00,
2013-11-28 02:00:00,28.1,26.6,30.40,NE,50,0.0,0.0,94,0.00,,,0.00,0,Wunderground v.1.15,2013-11-28 07:00:00,
2013-11-28 02:05:00,28.0,26.5,30.40,NE,50,0.0,0.0,94,0.00,,,0.00,0,Wunderground v.1.15,2013-11-28 07:05:00,
2013-11-28 02:15:00,28.1,26.6,30.40,NE,50,0.0,0.0,94,0.00,,,0.00,0,Wunderground v.1.15,2013-11-28 07:15:00,
2013-11-28 02:25:00,28.2,26.7,30.39,NE,50,0.0,0.0,94,0.00,,,0.00,0,Wunderground v.1.15,2013-11-28 07:25:00,
2013-11-28 02:35:00,28.0,26.5,30.39,NE,50,0.0,0.0,94,0.00,,,0.00,0,Wunderground v.1.15,2013-11-28 07:35:00,
2013-11-28 02:45:00,27.8,26.3,30.39,NE,50,0.0,0.0,94,0.00,,,0.00,0,Wunderground v.1.15,2013-11-28 07:45:00,
2013-11-28 02:50:00,27.7,26.2,30.39,NE,50,0.0,0.0,94,0.00,,,0.00,0,Wunderground v.1.15,2013-11-28 07:50:00,
2013-11-28 03:00:00,27.6,26.1,30.39,NE,50,0.0,0.0,94,0.00,,,0.00,0,Wunderground v.1.15,2013-11-28 08:00:00,
2013-11-28 03:05:00,27.5,26.0,30.39,NE,50,0.0,0.0,94,0.00,,,0.00,0,Wunderground v.1.15,2013-11-28 08:05:00,
2013-11-28 03:15:00,27.5,26.0,30.39,NE,50,0.0,0.0,94,0.00,,,0.00,0,Wunderground v.1.15,2013-11-28 08:15:00,
2013-11-28 03:25:00,27.4,25.9,30.39,NE,50,0.0,0.0,94,0.00,,,0.00,0,Wunderground v.1.15,2013-11-28 08:25:00,
2013-11-28 03:30:00,27.5,26.0,30.38,NE,50,0.0,0.0,94,0.00,,,0.00,0,Wunderground v.1.15,2013-11-28 08:30:00,
2013-11-28 03:35:00,27.4,25.9,30.38,NE,50,0.0,0.0,94,0.00,,,0.00,0,Wunderground v.1.15,2013-11-28 08:35:00,
2013-11-28 03:45:00,27.3,25.8,30.39,NE,50,0.0,0.0,94,0.00,,,0.00,0,Wunderground v.1.15,2013-11-28 08:45:00,
2013-11-28 03:55:00,27.3,25.8,30.38,NE,50,0.0,0.0,94,0.00,,,0.00,0,Wunderground v.1.15,2013-11-28 08:55:00,
2013-11-28 04:05:00,27.1,25.6,30.38,NE,50,0.0,0.0,94,0.00,,,0.00,0,Wunderground v.1.15,2013-11-28 09:05:00,
2013-11-28 04:10:00,26.9,25.4,30.38,NE,50,0.0,0.0,94,0.00,,,0.00,0,Wunderground v.1.15,2013-11-28 09:10:00,
2013-11-28 04:15:00,26.7,25.2,30.38,NE,50,0.0,0.0,94,0.00,,,0.00,0,Wunderground v.1.15,2013-11-28 09:15:00,
2013-11-28 04:25:00,26.7,25.2,30.37,NE,50,0.0,0.0,94,0.00,,,0.00,0,Wunderground v.1.15,2013-11-28 09:25:00,
2013-11-28 04:35:00,26.7,25.2,30.36,NE,50,0.0,0.0,94,0.00,,,0.00,0,Wunderground v.1.15,2013-11-28 09:35:00,
2013-11-28 04:40:00,26.7,25.5,30.36,NE,50,0.0,0.0,95,0.00,,,0.00,0,Wunderground v.1.15,2013-11-28 09:40:00,
2013-11-28 04:50:00,26.9,25.7,30.37,NE,50,0.0,0.0,95,0.00,,,0.00,0,Wunderground v.1.15,2013-11-28 09:50:00,
2013-11-28 04:55:00,26.9,25.7,30.37,NE,50,0.0,0.0,95,0.00,,,0.00,0,Wunderground v.1.15,2013-11-28 09:55:00,
2013-11-28 05:05:00,27.4,26.2,30.37,NE,50,0.0,0.0,95,0.00,,,0.00,0,Wunderground v.1.15,2013-11-28 10:05:00,
2013-11-28 05:10:00,27.7,26.5,30.37,NE,50,0.0,0.0,95,0.00,,,0.00,0,Wunderground v.1.15,2013-11-28 10:10:00,
2013-11-28 05:20:00,27.4,25.9,30.37,NE,50,0.0,0.0,94,0.00,,,0.00,0,Wunderground v.1.15,2013-11-28 10:20:00,
2013-11-28 05:30:00,27.4,25.9,30.37,NE,50,0.0,0.0,94,0.00,,,0.00,0,Wunderground v.1.15,2013-11-28 10:30:00,
2013-11-28 05:40:00,27.3,25.8,30.38,NE,50,0.0,0.0,94,0.00,,,0.00,0,Wunderground v.1.15,2013-11-28 10:40:00,
2013-11-28 05:50:00,27.1,25.6,30.39,NE,50,0.0,0.0,94,0.00,,,0.00,0,Wunderground v.1.15,2013-11-28 10:50:00,
2013-11-28 06:00:00,26.7,25.2,30.40,NE,50,0.0,0.0,94,0.00,,,0.00,0,Wunderground v.1.15,2013-11-28 11:00:00,
2013-11-28 06:10:00,26.3,24.8,30.40,NE,50,0.0,0.0,94,0.00,,,0.00,0,Wunderground v.1.15,2013-11-28 11:10:00,
2013-11-28 06:15:00,26.2,24.7,30.40,NE,50,0.0,0.0,94,0.00,,,0.00,0,Wunderground v.1.15,2013-11-28 11:15:00,
2013-11-28 06:25:00,26.4,24.9,30.40,NE,50,0.0,0.0,94,0.00,,,0.00,0,Wunderground v.1.15,2013-11-28 11:25:00,
2013-11-28 06:35:00,26.5,25.0,30.40,NE,50,0.0,0.0,94,0.00,,,0.00,0,Wunderground v.1.15,2013-11-28 11:35:00,
2013-11-28 06:45:00,26.5,25.0,30.40,NE,50,0.0,0.0,94,0.00,,,0.00,0,Wunderground v.1.15,2013-11-28 11:45:00,
2013-11-28 06:55:00,26.5,25.0,30.40,NE,50,0.0,0.0,94,0.00,,,0.00,0,Wunderground v.1.15,2013-11-28 11:55:00,
2013-11-28 07:00:00,26.6,25.1,30.40,NE,50,0.0,0.0,94,0.00,,,0.00,0,Wunderground v.1.15,2013-11-28 12:00:00,
2013-11-28 07:10:00,26.8,25.6,30.41,NE,50,0.0,1.0,95,0.00,,,0.00,0,Wunderground v.1.15,2013-11-28 12:10:00,
2013-11-28 07:20:00,26.7,25.2,30.41,NE,50,0.0,1.0,94,0.00,,,0.00,0,Wunderground v.1.15,2013-11-28 12:20:00,
2013-11-28 07:30:00,26.9,25.4,30.42,NE,50,0.0,1.0,94,0.00,,,0.00,0,Wunderground v.1.15,2013-11-28 12:30:00,
2013-11-28 07:40:00,27.0,25.5,30.42,NE,50,0.0,1.0,94,0.00,,,0.00,0,Wunderground v.1.15,2013-11-28 12:40:00,
2013-11-28 07:50:00,27.0,25.5,30.43,NE,50,0.0,1.0,94,0.00,,,0.00,0,Wunderground v.1.15,2013-11-28 12:50:00,
2013-11-28 08:00:00,26.7,24.9,30.42,NE,50,0.0,1.0,93,0.00,,,0.00,7,Wunderground v.1.15,2013-11-28 13:00:00,
2013-11-28 08:10:00,26.4,24.9,30.43,NE,50,0.0,1.0,94,0.00,,,0.00,12,Wunderground v.1.15,2013-11-28 13:10:00,
2013-11-28 08:20:00,26.3,24.8,30.43,NE,50,0.0,1.0,94,0.00,,,0.00,11,Wunderground v.1.15,2013-11-28 13:20:00,
2013-11-28 08:30:00,26.5,25.0,30.43,NE,50,0.0,1.0,94,0.00,,,0.00,12,Wunderground v.1.15,2013-11-28 13:30:00,
2013-11-28 08:40:00,27.0,25.8,30.43,NE,50,0.0,1.0,95,0.00,,,0.00,18,Wunderground v.1.15,2013-11-28 13:40:00,
2013-11-28 08:50:00,27.1,25.6,30.43,NE,50,0.0,1.0,94,0.00,,,0.00,26,Wunderground v.1.15,2013-11-28 13:50:00,
2013-11-28 08:55:00,27.1,25.6,30.43,NE,50,0.0,1.0,94,0.00,,,0.00,26,Wunderground v.1.15,2013-11-28 13:55:00,
2013-11-28 09:00:00,27.2,25.7,30.44,NE,50,0.0,1.0,94,0.00,,,0.00,37,Wunderground v.1.15,2013-11-28 14:00:00,
2013-11-28 09:10:00,27.8,26.6,30.44,NE,50,0.0,1.0,95,0.00,,,0.00,70,Wunderground v.1.15,2013-11-28 14:10:00,
2013-11-28 09:20:00,28.5,27.5,30.44,NE,50,0.0,1.0,96,0.00,,,0.00,72,Wunderground v.1.15,2013-11-28 14:20:00,
2013-11-28 09:25:00,29.1,28.1,30.45,NE,50,0.0,1.0,96,0.00,,,0.00,63,Wunderground v.1.15,2013-11-28 14:25:00,
2013-11-28 09:35:00,30.1,28.6,30.45,NE,50,0.0,1.0,94,0.00,,,0.00,49,Wunderground v.1.15,2013-11-28 14:35:00,
2013-11-28 09:40:00,30.3,28.8,30.45,NE,50,0.0,1.0,94,0.00,,,0.00,47,Wunderground v.1.15,2013-11-28 14:40:00,
2013-11-28 09:50:00,30.7,29.2,30.45,NE,50,0.0,1.0,94,0.00,,,0.00,84,Wunderground v.1.15,2013-11-28 14:50:00,
2013-11-28 09:55:00,30.9,29.1,30.45,ESE,113,0.0,1.0,93,0.00,,,0.00,155,Wunderground v.1.15,2013-11-28 14:55:00,
2013-11-28 10:05:00,32.3,29.1,30.45,SSW,196,0.0,1.0,88,0.00,,,0.00,102,Wunderground v.1.15,2013-11-28 15:05:00,
2013-11-28 10:15:00,33.9,29.3,30.45,South,188,0.0,1.0,83,0.00,,,0.00,134,Wunderground v.1.15,2013-11-28 15:15:00,
2013-11-28 10:25:00,35.0,29.5,30.45,SE,130,0.0,1.0,80,0.00,,,0.00,403,Wunderground v.1.15,2013-11-28 15:25:00,
2013-11-28 10:35:00,36.2,28.0,30.45,SE,140,0.0,1.0,72,0.00,,,0.01,429,Wunderground v.1.15,2013-11-28 15:35:00,
2013-11-28 10:40:00,36.8,28.3,30.45,SE,146,0.0,1.0,71,0.10,,,0.02,454,Wunderground v.1.15,2013-11-28 15:40:00,
2013-11-28 10:50:00,37.9,29.3,30.46,ESE,112,0.0,1.0,71,0.54,,,0.06,396,Wunderground v.1.15,2013-11-28 15:50:00,
2013-11-28 11:00:00,38.2,27.5,30.45,ENE,61,0.0,1.0,65,3.16,,,0.37,496,Wunderground v.1.15,2013-11-28 16:00:00,
2013-11-28 11:05:00,38.7,27.9,30.45,ENE,63,1.0,1.0,65,2.68,,,0.55,512,Wunderground v.1.15,2013-11-28 16:05:00,
2013-11-28 11:10:00,38.9,27.4,30.45,SSW,194,1.0,2.0,63,2.20,,,0.71,506,Wunderground v.1.15,2013-11-28 16:10:00,
2013-11-28 11:15:00,38.6,26.7,30.45,South,189,1.0,2.0,62,1.97,,,0.85,65,Wunderground v.1.15,2013-11-28 16:15:00,
2013-11-28 11:25:00,39.6,29.5,30.45,West,261,0.0,2.0,67,1.15,,,1.09,526,Wunderground v.1.15,2013-11-28 16:25:00,
2013-11-28 11:35:00,40.1,28.5,30.45,NE,38,1.0,1.0,63,1.08,,,1.32,563,Wunderground v.1.15,2013-11-28 16:35:00,
2013-11-28 11:45:00,41.1,27.0,30.45,ESE,122,0.0,2.0,57,1.51,,,1.52,566,Wunderground v.1.15,2013-11-28 16:45:00,
2013-11-28 11:50:00,41.0,26.9,30.44,NNE,33,1.0,2.0,57,1.01,,,1.62,561,Wunderground v.1.15,2013-11-28 16:50:00,
2013-11-28 12:00:00,41.3,27.6,30.44,North,9,1.0,1.0,58,0.81,,,1.79,578,Wunderground v.1.15,2013-11-28 17:00:00,
2013-11-28 12:05:00,42.6,29.7,30.44,WNW,285,1.0,1.0,60,0.82,,,1.88,578,Wunderground v.1.15,2013-11-28 17:05:00,
2013-11-28 12:15:00,43.1,28.9,30.44,SW,228,1.0,2.0,57,0.99,,,2.02,568,Wunderground v.1.15,2013-11-28 17:15:00,
2013-11-28 12:25:00,42.4,27.4,30.44,SW,233,2.0,2.0,55,0.87,,,2.15,520,Wunderground v.1.15,2013-11-28 17:25:00,
2013-11-28 12:35:00,43.1,26.7,30.43,SSE,166,0.0,1.0,52,0.67,,,2.25,429,Wunderground v.1.15,2013-11-28 17:35:00,
2013-11-28 12:45:00,43.8,27.3,30.43,SSE,167,0.0,1.0,52,0.32,,,2.32,418,Wunderground v.1.15,2013-11-28 17:45:00,
2013-11-28 12:50:00,43.7,27.2,30.42,ENE,69,0.0,2.0,52,0.23,,,2.34,329,Wunderground v.1.15,2013-11-28 17:50:00,
2013-11-28 12:55:00,43.4,27.8,30.42,NE,53,1.0,2.0,54,0.14,,,2.35,343,Wunderground v.1.15,2013-11-28 17:55:00,
2013-11-28 13:00:00,43.3,27.3,30.42,NNE,26,1.0,1.0,53,0.11,,,2.36,469,Wunderground v.1.15,2013-11-28 18:00:00,
2013-11-28 13:10:00,43.6,27.6,30.42,SE,141,1.0,1.0,53,0.08,,,2.38,555,Wunderground v.1.15,2013-11-28 18:10:00,
2013-11-28 13:20:00,43.7,27.2,30.41,ESE,122,0.0,3.0,52,0.10,,,2.39,422,Wunderground v.1.15,2013-11-28 18:20:00,
2013-11-28 13:25:00,44.0,28.0,30.41,SSE,160,0.0,3.0,53,0.07,,,2.40,601,Wunderground v.1.15,2013-11-28 18:25:00,
2013-11-28 13:35:00,44.8,30.0,30.40,SW,221,0.0,3.0,56,0.07,,,2.41,594,Wunderground v.1.15,2013-11-28 18:35:00,
2013-11-28 13:45:00,45.1,28.5,30.40,SW,220,0.0,3.0,52,0.05,,,2.42,587,Wunderground v.1.15,2013-11-28 18:45:00,
2013-11-28 13:55:00,45.4,27.8,30.40,ENE,66,1.0,3.0,50,0.07,,,2.43,548,Wunderground v.1.15,2013-11-28 18:55:00,
2013-11-28 14:00:00,45.6,28.5,30.40,ESE,111,1.0,1.0,51,0.07,,,2.43,573,Wunderground v.1.15,2013-11-28 19:00:00,
2013-11-28 14:05:00,45.8,28.2,30.40,SE,135,1.0,3.0,50,0.05,,,2.43,531,Wunderground v.1.15,2013-11-28 19:05:00,
2013-11-28 14:10:00,45.9,27.8,30.39,ESE,121,0.0,3.0,49,0.05,,,2.44,271,Wunderground v.1.15,2013-11-28 19:10:00,
2013-11-28 14:15:00,46.1,29.9,30.39,SE,130,0.0,3.0,53,0.07,,,2.45,90,Wunderground v.1.15,2013-11-28 19:15:00,
2013-11-28 14:25:00,46.3,28.7,30.38,ESE,111,0.0,3.0,50,0.06,,,2.45,113,Wunderground v.1.15,2013-11-28 19:25:00,
2013-11-28 14:30:00,46.5,28.8,30.39,NNW,333,0.0,3.0,50,0.04,,,2.46,91,Wunderground v.1.15,2013-11-28 19:30:00,
2013-11-28 14:40:00,47.0,28.8,30.39,WSW,244,0.0,3.0,49,0.04,,,2.46,135,Wunderground v.1.15,2013-11-28 19:40:00,
2013-11-28 14:45:00,47.0,28.8,30.39,WSW,244,0.0,3.0,49,0.05,,,2.47,121,Wunderground v.1.15,2013-11-28 19:45:00,
2013-11-28 14:50:00,46.8,28.6,30.38,ESE,113,0.0,3.0,49,0.05,,,2.47,160,Wunderground v.1.15,2013-11-28 19:50:00,
2013-11-28 15:00:00,46.5,28.8,30.38,SE,146,0.0,3.0,50,0.04,,,2.48,127,Wunderground v.1.15,2013-11-28 20:00:00,
2013-11-28 15:05:00,46.4,27.8,30.38,SW,227,0.0,3.0,48,0.04,,,2.48,149,Wunderground v.1.15,2013-11-28 20:05:00,
2013-11-28 15:15:00,46.3,27.7,30.38,SW,236,0.0,3.0,48,0.05,,,2.49,207,Wunderground v.1.15,2013-11-28 20:15:00,
2013-11-28 15:20:00,46.5,27.3,30.38,SE,140,1.0,3.0,47,0.05,,,2.49,239,Wunderground v.1.15,2013-11-28 20:20:00,
2013-11-28 15:30:00,46.4,28.3,30.38,SE,134,0.0,3.0,49,0.00,,,2.50,91,Wunderground v.1.15,2013-11-28 20:30:00,
2013-11-28 15:40:00,46.4,29.7,30.38,SE,126,0.0,3.0,52,0.00,,,2.50,111,Wunderground v.1.15,2013-11-28 20:40:00,
2013-11-28 15:50:00,46.4,28.3,30.38,South,175,0.0,3.0,49,0.05,,,2.51,142,Wunderground v.1.15,2013-11-28 20:50:00,
2013-11-28 16:00:00,46.5,29.3,30.38,SSE,158,0.0,3.0,51,0.00,,,2.51,111,Wunderground v.1.15,2013-11-28 21:00:00,
2013-11-28 16:10:00,46.8,28.1,30.38,ESE,110,0.0,3.0,48,0.00,,,2.52,121,Wunderground v.1.15,2013-11-28 21:10:00,
2013-11-28 16:20:00,47.0,29.3,30.38,ENE,62,0.0,3.0,50,0.04,,,2.53,72,Wunderground v.1.15,2013-11-28 21:20:00,
2013-11-28 16:25:00,47.0,29.8,30.38,ESE,105,0.0,3.0,51,0.04,,,2.53,65,Wunderground v.1.15,2013-11-28 21:25:00,
2013-11-28 16:35:00,47.0,29.3,30.39,SE,130,0.0,3.0,50,0.04,,,2.53,74,Wunderground v.1.15,2013-11-28 21:35:00,
2013-11-28 16:45:00,46.7,30.5,30.38,SE,130,0.0,3.0,53,0.00,,,2.54,86,Wunderground v.1.15,2013-11-28 21:45:00,
2013-11-28 16:55:00,46.7,30.5,30.39,SE,130,0.0,3.0,53,0.00,,,2.54,84,Wunderground v.1.15,2013-11-28 21:55:00,
2013-11-28 17:00:00,46.7,30.9,30.39,SE,130,0.0,3.0,54,0.00,,,2.54,69,Wunderground v.1.15,2013-11-28 22:00:00,
2013-11-28 17:05:00,46.8,29.6,30.39,ESE,114,0.0,3.0,51,0.00,,,2.55,35,Wunderground v.1.15,2013-11-28 22:05:00,
2013-11-28 17:15:00,46.7,31.4,30.38,ESE,114,0.0,3.0,55,0.00,,,2.55,30,Wunderground v.1.15,2013-11-28 22:15:00,
2013-11-28 17:20:00,46.5,29.8,30.39,ESE,114,0.0,3.0,52,0.00,,,2.55,26,Wunderground v.1.15,2013-11-28 22:20:00,
2013-11-28 17:25:00,46.3,31.0,30.39,ESE,114,0.0,3.0,55,0.00,,,2.55,26,Wunderground v.1.15,2013-11-28 22:25:00,
2013-11-28 17:30:00,46.1,31.3,30.39,ESE,114,0.0,3.0,56,0.00,,,2.55,26,Wunderground v.1.15,2013-11-28 22:30:00,
2013-11-28 17:40:00,45.6,30.3,30.39,ESE,114,0.0,3.0,55,0.00,,,2.56,19,Wunderground v.1.15,2013-11-28 22:40:00,
2013-11-28 17:50:00,44.9,31.4,30.39,ESE,114,0.0,3.0,59,0.00,,,2.56,7,Wunderground v.1.15,2013-11-28 22:50:00,
2013-11-28 17:55:00,44.4,31.8,30.38,ESE,114,0.0,3.0,61,0.00,,,2.56,5,Wunderground v.1.15,2013-11-28 22:55:00,
2013-11-28 18:00:00,43.9,32.1,30.39,ESE,114,0.0,3.0,63,0.00,,,2.57,0,Wunderground v.1.15,2013-11-28 23:00:00,
2013-11-28 18:10:00,43.2,32.6,30.39,ESE,114,0.0,3.0,66,0.00,,,2.57,0,Wunderground v.1.15,2013-11-28 23:10:00,
2013-11-28 18:20:00,42.4,33.3,30.39,ESE,114,0.0,3.0,70,0.00,,,2.57,0,Wunderground v.1.15,2013-11-28 23:20:00,
2013-11-28 18:30:00,41.5,33.1,30.39,ESE,114,0.0,3.0,72,0.00,,,2.57,0,Wunderground v.1.15,2013-11-28 23:30:00,
2013-11-28 18:35:00,41.0,32.3,30.39,ESE,114,0.0,3.0,71,0.00,,,2.57,0,Wunderground v.1.15,2013-11-28 23:35:00,
2013-11-28 18:45:00,40.3,32.3,30.40,ESE,114,0.0,3.0,73,0.00,,,2.57,0,Wunderground v.1.15,2013-11-28 23:45:00,
2013-11-28 18:50:00,40.1,33.1,30.40,ESE,114,0.0,3.0,76,0.00,,,2.58,0,Wunderground v.1.15,2013-11-28 23:50:00,
2013-11-28 18:55:00,39.8,33.2,30.40,ESE,114,0.0,3.0,77,0.00,,,2.58,0,Wunderground v.1.15,2013-11-28 23:55:00,
2013-11-28 19:00:00,39.7,32.8,30.40,ESE,114,0.0,0.0,76,0.00,,,2.58,0,Wunderground v.1.15,2013-11-29 00:00:00,
2013-11-28 19:10:00,38.9,33.3,30.40,ESE,114,0.0,1.0,80,0.00,,,2.58,0,Wunderground v.1.15,2013-11-29 00:10:00,
2013-11-28 19:20:00,38.0,33.0,30.40,ESE,114,0.0,1.0,82,0.00,,,2.58,0,Wunderground v.1.15,2013-11-29 00:20:00,
2013-11-28 19:25:00,37.8,32.8,30.41,ESE,114,0.0,1.0,82,0.00,,,2.58,0,Wunderground v.1.15,2013-11-29 00:25:00,
2013-11-28 19:35:00,37.7,33.3,30.41,ESE,114,0.0,1.0,84,0.00,,,2.58,0,Wunderground v.1.15,2013-11-29 00:35:00,
2013-11-28 19:40:00,37.6,32.9,30.41,ESE,115,0.0,1.0,83,0.00,,,2.58,0,Wunderground v.1.15,2013-11-29 00:40:00,
2013-11-28 19:50:00,37.3,32.9,30.41,ESE,114,0.0,1.0,84,0.00,,,2.58,0,Wunderground v.1.15,2013-11-29 00:50:00,
2013-11-28 20:00:00,37.0,33.2,30.41,ESE,114,0.0,1.0,86,0.00,,,2.58,0,Wunderground v.1.15,2013-11-29 01:00:00,
2013-11-28 20:10:00,36.7,32.3,30.42,ESE,114,0.0,1.0,84,0.00,,,2.58,0,Wunderground v.1.15,2013-11-29 01:10:00,
2013-11-28 20:15:00,36.6,32.2,30.42,ESE,114,0.0,1.0,84,0.00,,,2.58,0,Wunderground v.1.15,2013-11-29 01:15:00,
2013-11-28 20:25:00,36.9,33.4,30.42,ESE,114,0.0,1.0,87,0.00,,,2.58,0,Wunderground v.1.15,2013-11-29 01:25:00,
2013-11-28 20:35:00,36.9,33.4,30.42,ESE,114,0.0,1.0,87,0.00,,,2.58,0,Wunderground v.1.15,2013-11-29 01:35:00,
2013-11-28 20:40:00,36.9,33.4,30.43,ESE,114,0.0,1.0,87,0.00,,,2.58,0,Wunderground v.1.15,2013-11-29 01:40:00,
2013-11-28 20:50:00,36.6,33.4,30.42,ESE,114,0.0,1.0,88,0.00,,,2.58,0,Wunderground v.1.15,2013-11-29 01:50:00,
2013-11-28 20:55:00,36.5,33.0,30.42,ESE,114,0.0,1.0,87,0.00,,,2.58,0,Wunderground v.1.15,2013-11-29 01:55:00,
2013-11-28 21:05:00,35.9,32.7,30.42,ESE,114,0.0,1.0,88,0.00,,,2.58,0,Wunderground v.1.15,2013-11-29 02:05:00,
2013-11-28 21:10:00,35.7,32.8,30.43,ESE,114,0.0,1.0,89,0.00,,,2.58,0,Wunderground v.1.15,2013-11-29 02:10:00,
2013-11-28 21:20:00,35.5,32.9,30.43,ESE,114,0.0,1.0,90,0.00,,,2.58,0,Wunderground v.1.15,2013-11-29 02:20:00,
2013-11-28 21:30:00,35.5,32.9,30.43,ESE,115,0.0,1.0,90,0.00,,,2.58,0,Wunderground v.1.15,2013-11-29 02:30:00,
2013-11-28 21:35:00,35.5,33.1,30.43,ESE,114,0.0,1.0,91,0.00,,,2.58,0,Wunderground v.1.15,2013-11-29 02:35:00,
2013-11-28 21:40:00,35.5,33.1,30.43,ESE,114,0.0,1.0,91,0.00,,,2.58,0,Wunderground v.1.15,2013-11-29 02:40:00,
2013-11-28 21:50:00,35.4,33.0,30.43,ESE,115,0.0,1.0,91,0.00,,,2.58,0,Wunderground v.1.15,2013-11-29 02:50:00,
2013-11-28 22:00:00,35.1,32.7,30.44,ESE,114,0.0,1.0,91,0.00,,,2.58,0,Wunderground v.1.15,2013-11-29 03:00:00,
2013-11-28 22:10:00,34.8,32.4,30.44,ESE,115,0.0,1.0,91,0.00,,,2.58,0,Wunderground v.1.15,2013-11-29 03:10:00,
2013-11-28 22:15:00,34.6,32.2,30.44,ESE,115,0.0,1.0,91,0.00,,,2.58,0,Wunderground v.1.15,2013-11-29 03:15:00,
2013-11-28 22:20:00,34.4,32.0,30.44,ESE,115,0.0,1.0,91,0.00,,,2.58,0,Wunderground v.1.15,2013-11-29 03:20:00,
2013-11-28 22:30:00,34.3,32.2,30.44,ESE,115,0.0,1.0,92,0.00,,,2.58,0,Wunderground v.1.15,2013-11-29 03:30:00,
2013-11-28 22:40:00,34.1,32.0,30.44,ESE,115,0.0,1.0,92,0.00,,,2.58,0,Wunderground v.1.15,2013-11-29 03:40:00,
2013-11-28 22:45:00,33.9,31.8,30.44,ESE,115,0.0,1.0,92,0.00,,,2.58,0,Wunderground v.1.15,2013-11-29 03:45:00,
2013-11-28 22:55:00,33.4,31.3,30.45,ESE,115,0.0,1.0,92,0.00,,,2.58,0,Wunderground v.1.15,2013-11-29 03:55:00,
2013-11-28 23:05:00,33.0,31.2,30.45,ESE,115,0.0,1.0,93,0.00,,,2.58,0,Wunderground v.1.15,2013-11-29 04:05:00,
2013-11-28 23:15:00,32.9,31.1,30.45,ESE,115,0.0,1.0,93,0.00,,,2.58,0,Wunderground v.1.15,2013-11-29 04:15:00,
2013-11-28 23:25:00,32.7,30.9,30.45,ESE,115,0.0,1.0,93,0.00,,,2.58,0,Wunderground v.1.15,2013-11-29 04:25:00,
2013-11-28 23:35:00,32.5,30.7,30.45,ESE,115,0.0,1.0,93,0.00,,,2.58,0,Wunderground v.1.15,2013-11-29 04:35:00,
2013-11-28 23:40:00,32.5,30.7,30.45,ESE,115,0.0,1.0,93,0.00,,,2.58,0,Wunderground v.1.15,2013-11-29 04:40:00,
2013-11-28 23:45:00,32.4,30.9,30.46,ESE,115,0.0,1.0,94,0.00,,,2.58,0,Wunderground v.1.15,2013-11-29 04:45:00,
2013-11-28 23:55:00,32.4,30.6,30.45,ESE,115,0.0,1.0,93,0.00,,,2.58,0,Wunderground v.1.15,2013-11-29 04:55:00,